[[{"header":{"parameterUnit":"m.s-1","parameterCategory":1,"la1":30.2991,"la2":30.254,"lo1":-89.0895,"lo2":-89.0444,"dy":0.0017,"dx":0.0017,"nx":28,"ny":28,"refTime":"2024-06-29T09:00:00:Z","depth":0,"parameterNumber":2,"parameterNumberName":"U-component_of_WINDS"},"data":[0,0,0,0,0,0,0,0,0,0,0,0,0,0,0,0,0,0,0,0,0,0,0,0,0,0,0,0,0,0,0,0,0,0,0,0,0,0,0,0,0,0,0,0,0,0,0,0,0,0,0,0,0,0,0,0,0,0,-0.8767,-0.8766,0,-0.8717,-0.8717,-0.8716,-0.8656,-0.8655,-0.8654,-0.8653,-0.8602,-0.8602,-0.8601,0,0,0,0,0,0,0,0,0,0,0,0,0,-0.881,-0.8809,-0.8767,-0.8766,-0.8766,-0.8718,-0.8717,-0.8716,-0.8656,-0.8655,-0.8654,-0.8653,-0.8602,-0.8602,-0.8601,0,0,0,0,0,0,0,0,0,0,0,0,0,-0.8779,-0.8809,-0.8767,-0.873,-0.8726,-0.8718,-0.8717,-0.8716,-0.8656,-0.8655,-0.8653,-0.8652,-0.8603,-0.8602,-0.8601,-0.8625,0,0,-0.8599,-0.8599,0,0,0,0,0,0,0,0,-0.8781,-0.8777,-0.8736,-0.8733,-0.8728,-0.8691,-0.8713,-0.8686,-0.8657,-0.8683,-0.8653,-0.8651,-0.8633,-0.863,-0.8624,-0.8623,-0.8621,-0.8599,-0.8599,-0.8598,-0.8598,0,0,0,0,0,0,0,-0.8783,-0.8779,-0.8747,-0.8736,-0.8731,-0.8716,-0.871,-0.8708,-0.8667,-0.868,-0.8676,-0.8671,-0.8631,-0.8624,-0.8622,-0.862,-0.8599,-0.8598,-0.8598,-0.8598,-0.8637,-0.8638,0,0,0,0,0,0,-0.8791,-0.8781,-0.8749,-0.8746,-0.8752,-0.8716,-0.871,-0.8705,-0.8666,-0.8659,-0.8672,-0.8668,-0.8626,-0.8623,-0.862,-0.8646,-0.8598,-0.8598,-0.8597,-0.8636,-0.8637,-0.8639,0,0,0,0,0,0,-0.8792,-0.8788,-0.8751,-0.8762,-0.8757,-0.8717,-0.8712,-0.8704,-0.8698,-0.866,-0.8652,-0.8673,-0.8625,-0.8621,-0.8625,-0.8643,-0.8597,-0.8597,-0.8634,-0.8636,-0.8638,-0.8698,0,0,0,0,0,0,-0.8793,-0.8789,-0.8798,-0.8763,-0.8756,-0.8757,-0.8713,-0.8704,-0.8697,-0.8691,-0.8659,-0.8652,-0.8624,-0.8626,-0.8624,-0.8642,-0.8596,-0.8632,-0.8635,-0.8637,-0.8694,-0.8702,-0.8709,0,0,0,0,0,-0.8795,-0.8817,-0.8799,-0.8795,-0.8766,-0.8758,-0.8754,-0.872,-0.8699,-0.8707,-0.8683,-0.8654,-0.8642,-0.8627,-0.8624,-0.8642,-0.8631,-0.8634,-0.8637,-0.8691,-0.8701,-0.8709,0,0,0,0,0,0,-0.8854,-0.8811,-0.8791,-0.8802,-0.8784,-0.8748,-0.8757,-0.8731,-0.8719,-0.8714,-0.8673,-0.8666,-0.8675,-0.8658,-0.8643,-0.8663,-0.8632,-0.8635,-0.8674,-0.8682,-0.869,-0.8693,-0.8596,0,0,0,0,0,-0.8869,-0.8865,-0.8828,-0.8841,-0.8833,-0.8797,-0.8792,-0.8768,-0.8748,-0.874,-0.8715,-0.8697,-0.8689,-0.8685,-0.8675,-0.8692,-0.8684,-0.8702,-0.871,-0.8716,-0.8719,-0.8727,-0.8735,-0.865,-0.865,-0.865,0,0,-0.8898,-0.8874,-0.8875,-0.8852,-0.8836,-0.8834,-0.8791,-0.879,-0.8788,-0.8739,-0.8741,-0.8723,-0.87,-0.871,-0.8714,-0.8697,-0.8741,-0.872,-0.8725,-0.8725,-0.8731,-0.8739,-0.8746,-0.8652,-0.8652,-0.8651,0,0,-0.8951,-0.8933,-0.8942,-0.8926,-0.8901,-0.8877,-0.888,-0.8847,-0.8833,-0.8835,-0.8798,-0.8795,-0.8782,-0.8767,-0.8758,-0.8806,-0.8779,-0.8804,-0.8842,-0.885,-0.8857,-0.8863,-0.888,-0.8887,-0.8807,-0.8807,-0.8808,0,-0.8991,-0.8986,-0.895,-0.8951,-0.8943,-0.8899,-0.8908,-0.8894,-0.8868,-0.8863,-0.8845,-0.8828,-0.8809,-0.8816,-0.8828,-0.8822,-0.8823,-0.8808,-0.8859,-0.8864,-0.8869,-0.8886,-0.8892,-0.8811,-0.881,-0.881,-0.881,0,-0.9037,-0.9034,-0.9044,-0.902,-0.9013,-0.9018,-0.8983,-0.898,-0.8956,-0.8934,-0.8937,-0.8912,-0.8898,-0.8897,-0.8874,-0.8901,-0.8891,-0.8867,-0.8834,-0.8881,-0.8896,-0.8902,-0.8815,-0.8814,-0.8813,-0.8812,0,0,-0.9125,-0.9081,-0.9086,-0.9075,-0.9044,-0.9042,-0.9045,-0.9031,-0.9029,-0.9013,-0.9015,-0.9005,-0.8983,-0.8972,-0.8947,-0.8954,-0.8994,-0.8929,-0.8927,-0.8942,-0.9023,-0.9042,-0.905,-0.8976,-0.8977,-0.8978,-0.9025,0,-0.9173,-0.9176,-0.9144,-0.9157,-0.9154,-0.9112,-0.9116,-0.9098,-0.9077,-0.9072,-0.9049,-0.9043,-0.9013,-0.9007,-0.9012,-0.8989,-0.901,-0.8985,-0.8978,-0.8978,-0.8986,-0.9057,-0.9077,-0.9123,-0.903,-0.9031,-0.9032,0,-0.9229,-0.9216,-0.9228,-0.9198,-0.9195,-0.9199,-0.9183,-0.9179,-0.9158,-0.9142,-0.9131,-0.9103,-0.9104,-0.9074,-0.9076,-0.9059,-0.9054,-0.9042,-0.9043,-0.9042,-0.9008,-0.9058,-0.9136,-0.9143,-0.904,-0.904,-0.9039,0,-0.9293,-0.9278,-0.9284,-0.9275,-0.924,-0.9244,-0.9229,-0.9207,-0.92,-0.9187,-0.9182,-0.9169,-0.9162,-0.9153,-0.9122,-0.9102,-0.9128,-0.9094,-0.9115,-0.9116,-0.9123,-0.9123,-0.9202,-0.9119,-0.9119,-0.9119,-0.9119,0,-0.9349,-0.9359,-0.9312,-0.9316,-0.9325,-0.9288,-0.9298,-0.928,-0.926,-0.926,-0.9223,-0.9223,-0.9181,-0.9177,-0.9153,-0.9158,-0.9155,-0.9143,-0.9137,-0.9147,-0.9149,-0.9144,-0.914,-0.9121,-0.912,-0.912,-0.912,0,-0.9423,-0.9392,-0.9395,-0.9362,-0.9353,-0.9362,-0.9333,-0.9335,-0.9313,-0.9313,-0.931,-0.9275,-0.9268,-0.9236,-0.9221,-0.9205,-0.9219,-0.9206,-0.9226,-0.9222,-0.9245,-0.9244,-0.9324,-0.9333,-0.9245,-0.9246,-0.9247,0,-0.9461,-0.9467,-0.9435,-0.9432,-0.9419,-0.9414,-0.9408,-0.9372,-0.9366,-0.9343,-0.9348,-0.9338,-0.9329,-0.932,-0.9293,-0.9282,-0.9268,-0.9297,-0.9266,-0.9276,-0.9269,-0.9269,-0.927,-0.9304,-0.9305,-0.9306,-0.9307,0,-0.9533,-0.9517,-0.9509,-0.9496,-0.9489,-0.9477,-0.9463,-0.9463,-0.9423,-0.9419,-0.9411,-0.9404,-0.9389,-0.938,-0.9364,-0.9349,-0.9322,-0.9317,-0.9321,-0.9332,-0.9344,-0.9338,-0.9245,-0.9315,-0.9314,-0.9313,-0.9313,-0.9313,-0.959,-0.9594,-0.9572,-0.9564,-0.955,-0.9537,-0.9538,-0.9515,-0.9509,-0.9494,-0.9473,-0.9469,-0.9448,-0.9424,-0.9411,-0.9407,-0.9392,-0.9398,-0.9399,-0.9402,-0.9407,-0.9344,-0.9404,-0.9404,-0.9404,-0.9404,-0.9403,0,-0.966,-0.9644,-0.9637,-0.9619,-0.9613,-0.9587,-0.957,-0.9567,-0.9564,-0.9547,-0.9538,-0.953,-0.9521,-0.9494,-0.9482,-0.9484,-0.9472,-0.9483,-0.9482,-0.948,-0.9422,-0.9419,-0.9493,-0.9493,-0.9493,-0.9493,-0.9493,-0.9493,-0.9696,-0.9701,-0.9683,-0.9682,-0.9665,-0.9661,-0.9653,-0.9642,-0.9628,-0.9621,-0.9613,-0.9595,-0.9574,-0.9561,-0.9552,-0.9544,-0.9542,-0.9557,-0.9546,-0.9492,-0.9483,-0.9475,-0.9473,-0.9557,-0.9557,-0.9604,-0.9604,-0.9604]},{"header":{"parameterUnit":"m.s-1","parameterCategory":1,"la1":30.2991,"la2":30.254,"lo1":-89.0895,"lo2":-89.0444,"dy":0.0017,"dx":0.0017,"nx":28,"ny":28,"refTime":"2024-06-29T09:00:00:Z","depth":0,"parameterNumber":3,"parameterNumberName":"V-component_of_WINDS"},"data":[0,0,0,0,0,0,0,0,0,0,0,0,0,0,0,0,0,0,0,0,0,0,0,0,0,0,0,0,0,0,0,0,0,0,0,0,0,0,0,0,0,0,0,0,0,0,0,0,0,0,0,0,0,0,0,0,0,0,1.1854,1.1854,0,1.1803,1.1802,1.1801,1.1815,1.1816,1.1817,1.1818,1.1762,1.1759,1.1757,0,0,0,0,0,0,0,0,0,0,0,0,0,1.1961,1.1959,1.1854,1.1854,1.1853,1.1803,1.1802,1.1801,1.1814,1.1816,1.1817,1.1818,1.1762,1.176,1.1757,0,0,0,0,0,0,0,0,0,0,0,0,0,1.1913,1.1958,1.1854,1.1854,1.1853,1.1803,1.1802,1.1801,1.1814,1.1816,1.1817,1.1819,1.1763,1.176,1.1756,1.1703,0,0,1.1745,1.1743,0,0,0,0,0,0,0,0,1.1915,1.1909,1.1854,1.1853,1.1853,1.1817,1.1819,1.1768,1.1814,1.1829,1.1818,1.1819,1.1778,1.1774,1.1761,1.17,1.1698,1.1745,1.1742,1.1741,1.174,0,0,0,0,0,0,0,1.1919,1.1911,1.1834,1.1853,1.1852,1.1855,1.185,1.181,1.1795,1.1828,1.1828,1.1822,1.1778,1.1764,1.1759,1.1697,1.1745,1.1742,1.1739,1.1738,1.159,1.1588,0,0,0,0,0,0,1.1923,1.1914,1.1835,1.1832,1.1889,1.1852,1.1846,1.1827,1.1796,1.1793,1.1821,1.1823,1.177,1.1764,1.1757,1.1693,1.1741,1.1737,1.1735,1.1592,1.159,1.1588,0,0,0,0,0,0,1.1925,1.1916,1.1837,1.1873,1.1863,1.1848,1.1827,1.1825,1.1811,1.1791,1.1788,1.1809,1.1771,1.1763,1.1716,1.1691,1.1736,1.1733,1.1594,1.1591,1.1589,1.1563,0,0,0,0,0,0,1.1928,1.1917,1.1897,1.1873,1.1861,1.1798,1.1825,1.1823,1.1805,1.1807,1.1779,1.1776,1.1771,1.1722,1.1713,1.1687,1.173,1.1596,1.1593,1.159,1.1566,1.156,1.1554,0,0,0,0,0,1.1932,1.1891,1.1896,1.1886,1.1837,1.1797,1.179,1.1786,1.1803,1.1782,1.177,1.1777,1.1695,1.1717,1.1707,1.1679,1.1598,1.1594,1.159,1.1568,1.1561,1.1554,0,0,0,0,0,0,1.1912,1.1888,1.1893,1.1843,1.1822,1.1799,1.1773,1.1778,1.1751,1.1754,1.1749,1.1743,1.1696,1.1683,1.1708,1.1626,1.1649,1.1643,1.1636,1.1629,1.1623,1.1626,1.1727,0,0,0,0,0,1.1901,1.1872,1.1853,1.181,1.18,1.1788,1.1771,1.1769,1.1747,1.1738,1.1722,1.1699,1.1668,1.1648,1.1618,1.1564,1.1558,1.154,1.1535,1.153,1.1524,1.1494,1.1486,1.1575,1.1575,1.1575,0,0,1.188,1.1863,1.1845,1.1806,1.1789,1.1758,1.178,1.1746,1.1723,1.1732,1.1688,1.1675,1.1649,1.1599,1.1576,1.1587,1.1499,1.1525,1.1521,1.1518,1.149,1.1481,1.1474,1.1572,1.1573,1.1573,0,0,1.1824,1.1809,1.1772,1.1755,1.1731,1.1723,1.1714,1.1691,1.1683,1.1639,1.1645,1.1617,1.1564,1.1545,1.1528,1.1466,1.1472,1.1457,1.1426,1.1397,1.139,1.1384,1.1361,1.1353,1.1452,1.1451,1.1451,0,1.18,1.1754,1.1752,1.1718,1.17,1.1708,1.167,1.1654,1.162,1.1607,1.162,1.1554,1.1537,1.1482,1.1467,1.1454,1.1443,1.1459,1.1391,1.1385,1.1379,1.1357,1.1349,1.145,1.145,1.145,1.145,0,1.1725,1.1693,1.1666,1.1635,1.1614,1.1578,1.157,1.1549,1.1549,1.1541,1.1495,1.1475,1.1442,1.1429,1.1429,1.1374,1.1381,1.1393,1.1415,1.1369,1.1348,1.134,1.1447,1.1448,1.1448,1.1449,0,0,1.1654,1.1623,1.1613,1.1598,1.1572,1.1547,1.1511,1.1479,1.1461,1.1437,1.1406,1.1362,1.1372,1.1354,1.1352,1.1326,1.1277,1.1341,1.134,1.1329,1.1214,1.1205,1.1196,1.1281,1.128,1.1278,1.1216,0,1.1596,1.1533,1.1531,1.1473,1.1443,1.1451,1.142,1.1399,1.139,1.1363,1.1352,1.132,1.1337,1.1326,1.1301,1.1288,1.1254,1.1293,1.1251,1.125,1.1257,1.1185,1.1175,1.1118,1.1208,1.1207,1.1206,0,1.1519,1.1494,1.1434,1.1412,1.1399,1.1371,1.1342,1.1316,1.1293,1.1288,1.1267,1.1269,1.1231,1.1256,1.1203,1.123,1.1213,1.1204,1.1201,1.1196,1.1224,1.1177,1.1099,1.109,1.1193,1.1194,1.1195,0,1.1472,1.1424,1.1382,1.1369,1.1343,1.1322,1.131,1.1289,1.127,1.1244,1.1232,1.1201,1.1185,1.1161,1.1154,1.1173,1.1101,1.1125,1.1095,1.1095,1.1078,1.1079,1.0996,1.1069,1.1069,1.1069,1.1069,0,1.1407,1.1369,1.136,1.1334,1.1293,1.129,1.1248,1.1237,1.1218,1.1189,1.1194,1.1167,1.116,1.1131,1.1125,1.1082,1.1075,1.1069,1.1068,1.1068,1.1068,1.1056,1.1059,1.1067,1.1067,1.1068,1.1068,0,1.1347,1.134,1.1294,1.1273,1.1267,1.1237,1.1218,1.1192,1.1184,1.1148,1.1139,1.1126,1.1092,1.1083,1.1042,1.1039,1.0987,1.099,1.0995,1.0995,1.0965,1.0967,1.0869,1.0856,1.0939,1.0938,1.0937,0,1.1305,1.1277,1.1253,1.1234,1.1221,1.1192,1.1173,1.1169,1.1149,1.1121,1.1098,1.1065,1.1039,1.0984,1.097,1.0939,1.0941,1.0908,1.0936,1.0937,1.0939,1.094,1.0937,1.0903,1.0902,1.0901,1.0901,0,1.1231,1.1229,1.1202,1.1174,1.1152,1.1129,1.1107,1.1091,1.1084,1.1061,1.1027,1.1007,1.0966,1.0933,1.0901,1.0888,1.0892,1.0892,1.0883,1.0883,1.0887,1.0883,1.098,1.0894,1.0895,1.0895,1.0896,1.0896,1.1179,1.1154,1.1133,1.1103,1.1086,1.1066,1.1041,1.103,1.1002,1.0969,1.0968,1.0931,1.0908,1.0867,1.0852,1.0822,1.0832,1.0819,1.0815,1.0812,1.0809,1.0892,1.0816,1.0817,1.0817,1.0817,1.0817,0,1.1104,1.1092,1.1064,1.1034,1.101,1.1018,1.0994,1.0973,1.0941,1.092,1.0894,1.0855,1.0823,1.0807,1.0775,1.0754,1.0755,1.0746,1.0747,1.0743,1.0803,1.0813,1.0745,1.0745,1.0745,1.0745,1.0745,1.0745,1.1063,1.1021,1.1017,1.0966,1.0954,1.0918,1.0904,1.0885,1.0868,1.0824,1.0798,1.0789,1.0769,1.0736,1.0707,1.0703,1.069,1.0679,1.0676,1.0732,1.0739,1.0746,1.0756,1.0677,1.0677,1.0619,1.0618,1.0618]}]]